Retour au catalogue

TITAN 3A DEB

TRUSS

ActifMEO
NORAD 1000·DEBRIS·🇺🇸 United States

Lancé Feb 11, 1965 depuis Cape Canaveral Space Force Station

Loading…

Prochains Passages (prochaines 24 heures)

TLE

FraisSource: Space-Track

Époque: Sep 14, 2026, 13:43 UTC

1 01000U 65008B   26257.57195841  .00000002  00000-0 -80440-3 0  9994
2 01000  32.1406 123.6694 0010246 333.2731  26.7238  9.88891393226203

Suivez TITAN 3A DEB en temps réel avec AllMySat

Download on the App Store